sat.trackr.live / text

‹ back to catalog

STARLINK-33879

NORAD 63634 · 2025-083A

PAYLOAD ACTIVE UNKNOWN

§ Identity

Operator
Country
US
Launch date
2025-04-25
Launch site
AFETR
Launch vehicle
Mass (kg)
RCS (m²)

Purposes: comms

External: N2YO · Heavens-Above · Gunter

§ Orbital elements

Epoch: 2026-05-25T03:09:32.258304Z

Period
94.27 min
Inclination
43.0065°
Eccentricity
0.0003958
Mean motion
15.27588957 rev/d
Perigee alt
480.3 km
Apogee alt
485.7 km
Semi-major
6,861.2 km
B*
4.6670e-4
RAAN
293.8528°
Arg perigee
263.7447°
Mean anomaly
96.2954°
Rev number
6,175

§ Raw data

STARLINK-338791 63634U 25083A   26145.13162336  .00012607  00000+0  46670-3 0  99942 63634  43.0065 293.8528 0003958 263.7447  96.2954 15.27588957 61758

JSON: /api/v1/satellites/63634 · /tle

For live sub-satellite position, see the globe view (requires WebGL).

§ Visibility from observer

Set your observer location to see the next 7 days of passes ≥ 10°. The values pass through the URL so the page stays shareable.

No JS? Fill the form by hand. The geolocation button needs JavaScript.